Milton, FL

2:40 AM CST on February 09, 2016 (GMT -0600)
Whiting Field Naval Air Station (South)

Weather History for KNDZ - November, 2011

Change the Weather History Date:

Wednesday, November 23, 2011

  Actual Average (KPNS) Record (KPNS)
Temperature  
Mean Temperature 62 °F 59 °F  
Max Temperature 72 °F 68 °F 81 °F (1955)
Min Temperature 52 °F 49 °F 28 °F (1956)
Degree Days  
Heating Degree Days 2 7  
Month to date heating degree days 114  
Since 1 July heating degree days 152  
Cooling Degree Days 0 1  
Month to date cooling degree days 39  
Year to date cooling degree days 2589  
Growing Degree Days 12 (Base 50)    
Moisture  
Dew Point 57 °F    
Average Humidity 79    
Maximum Humidity 100    
Minimum Humidity 49    
Precipitation  
Precipitation 0.16 in 0.15 in 2.58 in (1884)
Month to date precipitation 3.64  
Year to date precipitation 59.63  
Snow  
Snow 0.00 in 0.00 in 0.00 in (2002)
Month to date snowfall 0.0  
Since 1 July snowfall 0.0  
Snow Depth -    
Sea Level Pressure  
Sea Level Pressure 30.08 in    
Wind  
Wind Speed 7 mph (NNW)    
Max Wind Speed 15 mph    
Max Gust Speed 21 mph    
Visibility 10 miles    
Events Rain    
T = Trace of Precipitation, MM = Missing Value Source: NWS Daily Summary

Daily Weather History Graph

Daily Weather History Graph

Search for Another Location

Airport or City:

Trip Planner

Search our weather history database for the weather conditions in past years. The results will help you decide how hot, cold, wet, or windy it might be!

Date:

Astronomy

Nov. 23, 2011 Rise Set
Actual Time 6:20 AM CST 4:47 PM CST
Civil Twilight 5:55 AM CST 5:13 PM CST
Nautical Twilight 5:25 AM CST 5:42 PM CST
Astronomical Twilight 4:56 AM CST 6:11 PM CST
Moon 4:27 AM CST (11/23) 3:27 PM CST (11/23)
Length of Visible Light 11h 18m
Length of Day
10h 26m
Waning Crescent, 3% of the Moon is Illuminated
Nov 23
Waning Crescent
Nov 25
New
Dec 2
First Quarter
Dec 10
Full
Dec 17
Last Quarter

Hourly Weather History & Observations

Time (CST) Temp. Dew Point Humidity Pressure Visibility Wind Dir Wind Speed Gust Speed Precip Events Conditions
12:04 AM 69.8 °F 69.8 °F 100% 30.05 in 5.0 mi Calm Calm - 0.01 in Rain Rain
12:56 AM 69.1 °F 68.0 °F 96% 29.98 in 9.0 mi SSW 3.5 mph - 0.16 in Rain Light Rain
1:56 AM 68.0 °F 66.9 °F 96% 29.99 in 10.0 mi NW 4.6 mph - 0.00 in   Overcast
2:10 AM 68.0 °F 66.2 °F 94% 30.03 in 10.0 mi NW 5.8 mph - N/A   Overcast
2:17 AM 68.0 °F 66.2 °F 94% 30.03 in 10.0 mi NW 4.6 mph - N/A   Overcast
2:56 AM 68.0 °F 66.0 °F 93% 30.00 in 10.0 mi NW 5.8 mph - N/A   Overcast
3:56 AM 66.0 °F 64.0 °F 93% 29.99 in 10.0 mi North 9.2 mph - N/A   Overcast
4:43 AM 64.4 °F 62.6 °F 94% 30.04 in 10.0 mi NNW 4.6 mph - N/A   Mostly Cloudy
4:56 AM 64.0 °F 62.1 °F 93% 30.01 in 10.0 mi NNW 4.6 mph - N/A   Mostly Cloudy
5:56 AM 64.0 °F 62.1 °F 93% 30.02 in 10.0 mi NNW 8.1 mph - N/A   Mostly Cloudy
6:05 AM 62.6 °F 60.8 °F 94% 30.06 in 10.0 mi NNW 8.1 mph - N/A   Scattered Clouds
6:49 AM 62.6 °F 60.8 °F 94% 30.08 in 10.0 mi NNW 6.9 mph - N/A   Mostly Cloudy
6:56 AM 63.0 °F 61.0 °F 93% 30.05 in 10.0 mi NNW 6.9 mph - N/A   Mostly Cloudy
7:56 AM 64.0 °F 59.0 °F 84% 30.07 in 10.0 mi North 13.8 mph 20.7 mph N/A   Overcast
8:56 AM 64.9 °F 57.9 °F 78% 30.10 in 10.0 mi NNW 15.0 mph 19.6 mph N/A   Overcast
9:56 AM 64.9 °F 55.0 °F 70% 30.11 in 10.0 mi NNE 15.0 mph 20.7 mph N/A   Overcast
10:56 AM 66.0 °F 55.0 °F 68% 30.09 in 10.0 mi NNW 9.2 mph - N/A   Mostly Cloudy
11:10 AM 66.2 °F 53.6 °F 64% 30.13 in 10.0 mi North 13.8 mph - N/A   Scattered Clouds
11:56 AM 66.9 °F 53.1 °F 61% 30.07 in 10.0 mi NNW 13.8 mph - N/A   Clear
12:56 PM 69.1 °F 52.0 °F 54% 30.06 in 10.0 mi North 11.5 mph - N/A   Clear
1:56 PM 72.0 °F 52.0 °F 49% 30.04 in 10.0 mi North 13.8 mph 20.7 mph N/A   Clear
2:56 PM 70.0 °F 51.1 °F 51% 30.05 in 10.0 mi North 11.5 mph - N/A   Clear
3:56 PM 66.9 °F 50.0 °F 54% 30.07 in 10.0 mi North 13.8 mph - N/A   Clear
4:56 PM 63.0 °F 50.0 °F 63% 30.09 in 10.0 mi North 5.8 mph - N/A   Clear
5:56 PM 60.1 °F 50.0 °F 69% 30.12 in 10.0 mi North 6.9 mph - N/A   Clear
6:56 PM 59.0 °F 48.9 °F 69% 30.14 in 10.0 mi North 9.2 mph - N/A   Clear
7:56 PM 57.0 °F 48.9 °F 74% 30.16 in 10.0 mi North 11.5 mph - N/A   Clear
8:56 PM 55.0 °F 48.0 °F 77% 30.18 in 10.0 mi North 10.4 mph - N/A   Clear
9:56 PM 53.1 °F 46.9 °F 80% 30.18 in 10.0 mi North 9.2 mph - N/A   Clear
10:56 PM 53.1 °F 46.9 °F 80% 30.17 in 10.0 mi North 10.4 mph - N/A   Clear
11:56 PM 52.0 °F 46.0 °F 80% 30.17 in 10.0 mi North 10.4 mph - N/A   Clear